Regional Weather Roundup
Issued by NWS

Home | Current Version | Previous Version | Text Only | Print | Product List | Glossary On
Versions: 1 2 3 4 5 6 7 8 9 10 11 12 13 14 15 16 17 18 19 20 21 22 23 24 25 26 27 28 29 30 31 32 33 34 35 36 37 38 39 40 41 42 43 44 45 46 47 48 49 50
000
ASUS45 KSLC 290810
RWRUT

UTAH REGIONAL WEATHER ROUNDUP
NATIONAL WEATHER SERVICE SALT LAKE CITY UT
100 AM MST THU JAN 29 2015

UTZ001>011-023>025-290900-

NORTHERN UTAH

CITY           SKY/WX    TMP DP  RH WIND       PRES   REMARKS
BRIGHAM CITY   CLEAR     33  32  95 CALM      30.38S
HILL AFB       CLEAR     37  33  84 E6        30.36R WCI  33
LOGAN          FOG       36  35  96 CALM      30.39S VSB 3/4
OGDEN          CLEAR     32  32 100 W7        30.36S FOG     WCI  26
PROVO AIRPORT  CLEAR     30  28  93 N5        30.37S WCI  25
SALT LAKE CITY PTCLDY    34  32  92 S3        30.37S
VERNAL         CLOUDY    35  28  75 CALM      30.34S
WENDOVER       CLOUDY    37  30  75 S6        30.39S WCI  33
HEBER CITY     CLOUDY    30  30 100 CALM      30.37R
WEST JORDAN    CLEAR     34  34 100 CALM      30.39R

$$

UTZ012>022-026-027-290900-

SOUTHERN/CENTRAL UTAH

CITY           SKY/WX    TMP DP  RH WIND       PRES   REMARKS
BLANDING       CLOUDY    38  31  74 N8        30.35F WCI  33
BRYCE CANYON   CLOUDY    29  27  92 W5        30.34S WCI  24
CEDAR CITY     CLOUDY    33  29  85 CALM      30.30F
DELTA          PTCLDY    36  32  87 N6        30.34R WCI  31
HANKSVILLE     CLOUDY    32  28  86 CALM      30.33S
MILFORD        MOCLDY    37  31  78 N6        30.33R WCI  32
MOAB/CYNLANDS  CLEAR     31  29  92 CALM      30.29S
PRICE          PTCLDY    36  25  64 N3        30.31S
ST GEORGE      SUNNY     46  39  76 S5        30.26F
KANAB          CLOUDY    43  34  70 NW12      30.31S

$$

REGIONAL REPORTS     COLORADO/ARIZONA

CITY           SKY/WX    TMP DP  RH WIND       PRES   REMARKS
CRAIG, CO      CLOUDY    33  30  88 SE3       30.35S
GRAND JUNCTION MOCLDY    37  29  72 E6        30.31R WCI  32
RIFLE          CLOUDY    36  27  69 E5        30.34R WCI  32
MONTROSE       CLOUDY    31  26  82 E6        30.35R WCI  25
CORTEZ         CLEAR     32  27  81 E6        30.31S WCI  26
PAGE, AZ       NOT AVBL
GRAND CANYON   CLOUDY    37  32  82 CALM      30.28F
KINGMAN        CLOUDY    47  41  80 E8        30.19F
FLAGSTAFF      CLOUDY    34  28  79 CALM      30.29S

$$

REGIONAL REPORTS    NEVADA/IDAHO/WYOMING

CITY           SKY/WX    TMP DP  RH WIND       PRES   REMARKS
LAS VEGAS, NV  CLOUDY    57  46  66 S5        30.14F
ELY            PTCLDY    27  25  92 S7        30.35S WCI  19
ELKO           CLEAR     31  28  89 CALM      30.36R
POCATELLO, ID  CLOUDY    35  35 100 NE5       30.43R WCI  31
BURLEY         CLOUDY    36  33  89 NE6       30.41R WCI  31
EVANSTON, WY   CLOUDY    31  29  92 N9        30.37S FOG     WCI  23
ROCK SPRINGS   PTCLDY    30  27  88 W8        30.36S WCI  22
KEMMERER       CLEAR     27  25  93 NW8       30.37S WCI  18

$$


USA.gov is the U.S. government's official web portal to all federal, state and local government web resources and services.